Terug naar catalogus

COSMOS 1134

ActiefMilitairLEO
NORAD 11542·PAYLOAD·🇷🇺 Russia

Gelanceerd Sep 25, 1979 vanaf Plesetsk Cosmodrome

Loading…

Volgende Passages (komende 24 uur)

TLE

VersSource: Space-Track

Epoch: Sep 14, 2026, 09:59 UTC

1 11542U 79084E   26257.41607795 -.00000026  00000-0 -69318-4 0  9993
2 11542  74.0214 247.2392 0019518 330.1101 101.9387 12.49080832141759

Volg COSMOS 1134 in realtime met AllMySat

Download on the App Store